THOR ABLESTAR DEB, 3748

Orbit data source: Space-Track

THOR ABLESTAR DEB, 3748 is space debris in LEO originally from a launch on Thu, 29 Jun 1961 UTC launched from the Air Force Eastern Test Range (AFETR). Debris objects in space refer to the collection of defunct objects orbiting the Earth. Examples of debris include non-operational satellites, rocket bodies, and fragments generated from explosions, collisions, or faulty payload assembly.

Loading next visibility...
Identifier
3748, 1961-015JD
Orbit
LEO
Country
Flag of USUS
Related business
Manufacturer
Unknown
Mission
Spacecraft
Bus & Motor
Unknown
Mass
Unknown
Launch date (UTC)
1961-06-29 (65 years ago)
Launch vehicle
Unknown
Launch site
Air Force Eastern Test Range (AFETR)
Object type
Payload
Rocket body
Debris
Shape & HBR
Unknown shape, 0.1 m
Radar Cross Section
Small (<0.1 m²)

Expand to show TLE details & history
Last TLE update: 11 hours ago

TLE from 11 hours ago
0 THOR ABLESTAR DEB
1 03748U 61015JD  26119.35643890  .00000347  00000-0  96748-3 0  9993
2 03748  67.7427 243.7206 0531654 320.0115  65.7456 12.80103042687574
Epoch: 2026-04-29T08:33Z
TLE epoch observation values (Epoch: 2026-04-29T08:33:16.320Z)
Latitude
28.93926°
Longitude
-88.90494°
Altitude
1,193.93 km
Speed
7.33 km/s
True Right ascension
17h 06m 55s
True Declination
28° 48' 08"
Sunlit
Object was in daylight at epoch
Visualization orbit readout
Latitude
Unknown
Longitude
Unknown
Altitude
Unknown
Speed
Unknown
Apparent Right ascension
Unknown
Apparent Declination
Unknown
Sunlit
N/A
Visualization observer readout
Local Sidereal Time
02:49:05
Azimuth
Unknown
Elevation
Unknown
Doppler factor
Unknown
Orbital elements
Apogee altitude
1,749.736 km
Perigee altitude
929.121 km
Semi-major axis
7,717.566 km
Eccentricity
0.05317
Inclination
67.7427°
RAAN
243.7206°
Arg. of periapsis
320.0115°
True anomaly
71.4464°
Mean anomaly
65.7456°
Eccentric anomaly
68.58138°
Mean motion
3.20127 °/min
Orbital period
112.46 mins
BSTAR
0.00096748
Loading maneuver chart data...
Computing Atmospheric mass density...

Documentation

Showing up to 5 results
|